Torna al catalogo

COSMOS 2499 DEB

AttivoPO
NORAD 60612·DEBRIS·🇷🇺 Russia

Lanciato May 23, 2014 da Plesetsk Cosmodrome

Loading…

Prossimi Passaggi (prossime 24 ore)

TLE

In scadenzaSource: Space-Track

Epoca: Sep 10, 2026, 07:19 UTC

1 60612U 14028BY  26253.30547715  .00004207  00000-0  71623-2 0  9994
2 60612  82.1420  93.9419 0304955 298.8541  58.2293 13.28247969175140

Traccia COSMOS 2499 DEB in tempo reale con AllMySat

Download on the App Store